Santa Rosa, CA

6:54 AM PDT on April 21, 2018 (GMT -0700)
Sonoma County

Weather History for KSTS - March, 2013

Change the Weather History Date:

Friday, March 29, 2013

  Actual Average Record
Temperature  
Mean Temperature 62 °F 54 °F  
Max Temperature 76 °F 66 °F 85 °F (2018)
Min Temperature 47 °F 42 °F 34 °F (1999)
Degree Days  
Heating Degree Days 3    
Month to date heating degree days 333  
Since 1 July heating degree days 2410  
Cooling Degree Days 0    
Month to date cooling degree days 0  
Year to date cooling degree days 0  
Growing Degree Days 12 (Base 50)    
Moisture  
Dew Point 49 °F    
Average Humidity 72    
Maximum Humidity 100    
Minimum Humidity 43    
Precipitation  
Precipitation 0.00 in 0.14 in 1.14 in (2006)
Month to date precipitation 1.50 4.70  
Year to date precipitation 2.69 18.15  
Since 1 July precipitation 25.10  
Sea Level Pressure  
Sea Level Pressure 30.06 in    
Wind  
Wind Speed 4 mph (South)    
Max Wind Speed 14 mph    
Max Gust Speed 18 mph    
Visibility 5 miles    
Events Fog    
T = Trace of Precipitation, MM = Missing Value Source: NWS Daily Summary

Daily Weather History Graph

Daily Weather History Graph

Search for Another Location

Airport or City:

Astronomy

Mar. 29, 2013 Rise Set
Actual Time 7:00 AM PDT 7:32 PM PDT
Civil Twilight 6:33 AM PDT 7:58 PM PDT
Nautical Twilight 6:02 AM PDT 8:30 PM PDT
Astronomical Twilight 5:30 AM PDT 9:02 PM PDT
Moon 10:35 PM PDT (3/29) 8:15 AM PDT (3/29)
Length of Visible Light 13h 25m
Length of Day
12h 31m
Waning Gibbous, 93% of the Moon is Illuminated
Mar 29
Waning Gibbous
Apr 2
Last Quarter
Apr 10
New
Apr 18
First Quarter
Apr 25
Full

Hourly Weather History & Observations

Time (PDT) Temp. Dew Point Humidity Pressure Visibility Wind Dir Wind Speed Gust Speed Precip Events Conditions
12:07 AM 48.2 °F 46.4 °F 93% 30.09 in 6.0 mi Calm Calm - N/A   Scattered Clouds
12:15 AM 48.2 °F 46.4 °F 93% 30.09 in 8.0 mi Calm Calm - N/A   Mostly Cloudy
12:31 AM 48.2 °F 46.4 °F 93% 30.09 in 1.8 mi Calm Calm - N/A   Overcast
12:36 AM 48.2 °F 46.4 °F 93% 30.09 in 0.8 mi Calm Calm - N/A   Overcast
12:51 AM 48.2 °F 46.4 °F 93% 30.09 in 1.2 mi Calm Calm - N/A   Overcast
12:53 AM 48.9 °F 46.9 °F 93% 30.07 in 1.0 mi Calm Calm - N/A   Mist
1:01 AM 48.2 °F 48.2 °F 100% 30.09 in 0.5 mi Calm Calm - N/A Fog Fog
1:29 AM 50.0 °F 48.2 °F 94% 30.09 in 0.2 mi SE 3.5 mph - N/A Fog Fog
1:53 AM 50.0 °F 48.9 °F 96% 30.07 in 0.2 mi ESE 3.5 mph - N/A Fog Fog
2:38 AM 50.0 °F 48.2 °F 94% 30.09 in 0.5 mi Calm Calm - N/A Fog Fog
2:49 AM 50.0 °F 48.2 °F 94% 30.09 in 1.2 mi Calm Calm - N/A   Overcast
2:53 AM 50.0 °F 48.9 °F 96% 30.07 in 1.2 mi Calm Calm - N/A   Overcast
3:26 AM 50.0 °F 48.2 °F 94% 30.08 in 0.8 mi Calm Calm - N/A   Mist
3:36 AM 50.0 °F 48.2 °F 94% 30.08 in 1.2 mi Calm Calm - N/A   Overcast
3:53 AM 50.0 °F 48.9 °F 96% 30.06 in 1.2 mi NNW 3.5 mph - N/A   Overcast
4:53 AM 50.0 °F 48.9 °F 96% 30.05 in 1.5 mi North 4.6 mph - N/A   Overcast
5:13 AM 50.0 °F 48.2 °F 94% 30.07 in 0.8 mi NNW 3.5 mph - N/A   Mist
5:53 AM 48.9 °F 48.0 °F 97% 30.05 in 0.5 mi North 3.5 mph - N/A Fog Fog
6:25 AM 48.2 °F 46.4 °F 93% 30.07 in 0.2 mi NW 3.5 mph - N/A Fog Fog
6:53 AM 48.0 °F 46.9 °F 96% 30.06 in 0.2 mi WNW 3.5 mph - N/A Fog Fog
7:53 AM 48.0 °F 46.9 °F 96% 30.07 in 0.2 mi WNW 3.5 mph - N/A Fog Fog
8:53 AM 48.0 °F 46.9 °F 96% 30.08 in 0.2 mi Calm Calm - N/A Fog Fog
9:27 AM 48.2 °F 48.2 °F 100% 30.09 in 0.8 mi Calm Calm - N/A   Overcast
9:53 AM 50.0 °F 48.9 °F 96% 30.07 in 2.5 mi Calm Calm - N/A   Mostly Cloudy
10:06 AM 51.8 °F 50.0 °F 94% 30.09 in 10.0 mi Calm Calm - N/A   Scattered Clouds
10:53 AM 59.0 °F 53.1 °F 81% 30.06 in 10.0 mi Calm Calm - N/A   Scattered Clouds
11:53 AM 63.0 °F 53.1 °F 70% 30.06 in 10.0 mi Calm Calm - N/A   Scattered Clouds
12:53 PM 69.1 °F 55.0 °F 61% 30.04 in 10.0 mi South 3.5 mph - N/A   Scattered Clouds
1:53 PM 73.0 °F 55.0 °F 53% 30.03 in 10.0 mi South 6.9 mph - N/A   Mostly Cloudy
2:53 PM 75.0 °F 52.0 °F 44% 30.01 in 10.0 mi South 10.4 mph 16.1 mph N/A   Mostly Cloudy
3:53 PM 75.9 °F 51.1 °F 42% 30.00 in 10.0 mi South 9.2 mph - N/A   Mostly Cloudy
4:53 PM 73.0 °F 54.0 °F 51% 30.00 in 10.0 mi SSW 10.4 mph - N/A   Mostly Cloudy
5:53 PM 69.1 °F 54.0 °F 58% 30.00 in 10.0 mi SSE 6.9 mph - N/A   Mostly Cloudy
6:53 PM 64.0 °F 52.0 °F 65% 30.00 in 10.0 mi South 5.8 mph - N/A   Mostly Cloudy
7:53 PM 60.1 °F 51.1 °F 72% 30.00 in 10.0 mi SSE 5.8 mph - N/A   Clear
8:53 PM 57.9 °F 51.1 °F 78% 30.01 in 10.0 mi SE 4.6 mph - N/A   Clear
9:53 PM 57.9 °F 48.9 °F 72% 30.03 in 10.0 mi SSW 4.6 mph - N/A   Clear
10:53 PM 57.0 °F 48.9 °F 74% 30.04 in 10.0 mi SSW 3.5 mph - N/A   Scattered Clouds
11:53 PM 55.9 °F 48.0 °F 75% 30.03 in 10.0 mi Calm Calm - N/A   Clear